Погода в Уиле

Погода в Уиле : погода сейчас, прогноз погоды и архив. Всё, что Вы хотите узнать о погоде в Уиле!

Хотите узнать прогноз погоды в Уиле? Тогда Вам сюда: Погода в Уиле

Поиск расширенной информации на нашем сайте:

Другие новости

Новости СМИ2

Главная страница сайта

Новости сайта

03.07.2017

Напоминаем, что на нашем специализированном сайте Метеоцентр.Азия вы можете получить высокодетализированные автоматические прогнозы погоды по пунктам России, СНГ и мира в авиационном формате (включающие направление и скорость ветра, видимость, явления погоды, количество и форму облачности, нижнюю и верхнюю границу облачности).


Погода в Уиле - сегодня

Время (UTC), дата Ветер
(°,м/с) 
Видим.   Явления Облачность Т
(°С)
Тd
(°С)
f(%) Тe
(°С)
Pmin
(гПа)
dP
(гПа)
Po
(мм)
O2
(г/м3)
Тmin Tmax R s Состояние
почвы
12 20.10.17 230 (ЮЗ) 4000 м  слаб. дождь{туман}  10/10 600 м 
[Ns]
+10.5 +10.3 99 +12  1014.5  -0.3  752  290           
15 20.10.17 270 (З) н/о  дымка{дождь}  10/8 600 м средняя 
[Frnb|As op]
+10.6 +10 96 +12  1015.3  0.7  753  290    +10.8     
18 20.10.17 290 (З) н/о  дымка{дождь}  ясно 
+6.9 +6.9 100 +7  1016  0.6  753  295    +10.8     
21 20.10.17 300 (СЗ) н/о  дымка  ясно 
+4.5 +3.5 93 +4  1016.3  0.2  753  298           
00 21.10.17 280 (З) н/о  дымка  1/0 верхняя 
[Ci fib]
+3 +2.2 94 +2  1016.3  -0.1  753  300           
03 21.10.17 290 (З) 4000 м  дымка  4/0 средняя, верхняя 
[Ac As|Ci fib]
+1.7 +1.4 98 1016.6  0.2  753  301  +1.7         
06 21.10.17 270 (З) 10 км    8/5 1000 м средняя 
[Sc diur, vesp|Ac trans]
+7.4 +2.6 72 +7  1016.7  0.4  754  295  +1.7         
09 21.10.17 270 (З) 10 км    8/8 1000 м верхняя 
[Cu hum|Ci fib]
+8.7 -1.9 47 +8  1016.4  -0.3  754  294           
12 21.10.17 300 (СЗ) 10 км    6/3 1000 м верхняя 
[Cu hum|Ci fib]
+8.9 -2.3 45 +8  1015.9  -0.5  753  294           
15 21.10.17 260 (З) н/о    8/8 1000 м 
[Sc]
+4.9 -0.4 69 +5  1016.8  0.8  754  298    +10.3       
18 21.10.17 220 (ЮЗ) н/о    3/0 средняя 
[Ac trans]
+1.6 -0.6 85 +1  1016.9  -0.1  754  302    +10.3       
21 21.10.17 220 (ЮЗ) н/о    ясно 
+0.2 -1 92 -1  1017  754  304           
00 22.10.17 200 (Ю) н/о    ясно 
+0 -1.5 90 -1  1016.8  -0.1  754  304           
03 22.10.17 тихо ()   10 км    10/10 1000 м 
[Sc]
+0 -0.6 96 1017  0.1  754  304           
06 22.10.17 тихо ()   10 км    10/10 1000 м 
[Sc]
+2.6 +0.2 84 +3  1017  -0.2  754  301  -1         
09 22.10.17 130 (ЮВ) 10 км    10/10 600 м 
[Sc]
+6.6 +0.2 64 +5  1015.4  -1.4  753  296           
12 22.10.17 080 (В) 10 км  слаб. дождь  10/10 600 м 
[Ns]
+4.4 +2.9 90 +2  1013.9  -1.6  752  298           
15 22.10.17 080 (В) н/о  слаб. дождь  10/10 600 м 
[Ns]
+3 +3 100 +1  1011.8  -2.1  750  298    +7.1  0.6     
18 22.10.17 020 (С) н/о  слаб. морось{дождь}  10/10 600 м 
[Ns]
+2.6 +2.4 99 +1  1009.6  -2.2  748  298    +7.1  0.6     
21 22.10.17 350 (С) н/о  {морось}  10/10 600 м 
[Sc]
+2.3 +2.1 99 +1  1008.3  -1.4  747  298           
00 23.10.17 320 (СЗ) н/о  слаб. дождь со снегом  10/10 600 м 
[Ns]
+1.6 +1.6 100 1008.1  -0.2  747  299           
03 23.10.17 320 (СЗ) 10 км  слаб. снег{дождь}  10/10 600 м 
[Ns]
+0.2 +1.3 100 -2  1008.9  0.7  748  301      0.4     
06 23.10.17 320 (СЗ) 10 км  {снег}  10/10 600 м 
[Sc]
+1.2 +1.2 100 -2  1011.2  2.4  749  300  +0.2    0.4     
09 23.10.17 300 (СЗ) 10 км    5/5 600 м 
[Cu hum]
+2.4 +0.8 89 1013.4  2.2  751  300           
12 23.10.17 310 (СЗ) 10 км    3/3 600 м 
[Cu hum]
+5.7 -4.2 49 +4  1015.4  2.1  753  298           
Время (UTC), дата Ветер
(°,м/с) 
Видим.   Явления Облачность Т
(°С)
Тd
(°С)
f(%) Тe
(°С)
Pmin
(гПа)
dP
(гПа)
Po
(мм)
O2
(г/м3)
Тmin Tmax R s Состояние
почвы

Для получения пояснительной информации подведите курсор к названию столбца.

ПОГОДА в Уиле - архив

Всё, что Вы хотите узнать о погоде в Уиле - удобно и подробно!

Выберите нужную дату (начиная с 1 января 2015* года) и нажмите кнопку "Найти".
Будут отображены архивные сводки погоды по пункту Уил, начиная с указанной даты.


Отображать данные в формате CSV (для использования в таблицах Excel)


Внимание! Наш архив погоды предназначен исключительно для личного некоммерческого использования в познавательных целях. Если Вам необходимы официальные справки о состоянии погоды (для производственных, юридических, коммерческих и т.п. целей), обращайтесь в органы Росгидромета.

*Примечание: данная дата относится к архиву по метеостанциям СССР (Россия, СНГ, Балтия).
Архив по метеостанциям Зарубежной Европы и Азии (кроме Китая) хранится 10 дней, по другим регионам земного шара (Китай, Африка, Америка, Австралия, Океания) - 1 день.

Уил - район местоположения метеостанции


Название, широта, долгота, высота метеостанции:
Уил 49.1°ш. 54.7°д. 128 м над ур. моря [Казахстан]

Дополнительная информация

В oтличие oт бoльшинства пoгoдных сайтoв мы публикуем пoдрoбную метеoинфoрмацию в детальнoм прoфессиoнальнoм фoрмате.

Характеристики температуры и влажнoсти вoздуха измеряются на высoте 2 м в тени вдали oт зданий и деревьев.
Скoрoсть ветра измеряется на высoте 10 м (на урoвне рoста челoвека скoрoсть ветра ниже в 1.5-2 раза). Если метеoстанция нахoдится в гoрoде или в лесу, тo скoрoсть ветра занижена на 2-4 м/с пo сравнению с oткрытым местoм. Скoрoсть ветра над акватoриями крупных рек и oзёр, а также на вершинах хoлмoв на 2-5 м/с выше, чем в oбычных услoвиях.
Атмoсфернoе давление в разных тoчках местнoсти мoжет значительнo oтличаться oт давления на метеoстанции, в зависимoсти oт услoвий рельефа (при пoдъёме на 10 м давление пoнижается примернo на 1 мм рт.ст.).